FENGYUN 1C DEB, 32425

Orbit data source: Space-Track

FENGYUN 1C DEB, 32425 is space debris in SSO originally from a launch on Mon, 10 May 1999 UTC launched from the Taiyaun Space Center, China (TSC). Fengyun 1C debris stems from the Chinese weather satellite Fengyun-1C, which was intentionally destroyed by a Chinese anti-satellite missile in 2007. This event dramatically increased the amount of space debris, with thousands of trackable fragments posing hazards to satellites and human spaceflight. The Fengyun 1C debris cloud has become a focal point in discussions about space sustainability and the need for international regulations to prevent the creation of new debris.

Loading next visibility...
Identifier
32425, 1999-025DAM
Orbit
SSO
Country
Flag of CNCN / PRC
Related business
Manufacturer
Unknown
Mission
Spacecraft
Bus & Motor
Unknown
Mass
Unknown
Launch date (UTC)
1999-05-10 (27 years ago)
Launch vehicle
Unknown
Launch site
Taiyaun Space Center, China (TSC)
Object type
Payload
Rocket body
Debris
Shape & HBR
Unknown shape, 0.1 m
Radar Cross Section
Small (<0.1 m²)

Expand to show TLE details & history
Last TLE update: 1 day ago

TLE from 1 day ago
0 FENGYUN 1C DEB
1 32425U 99025DAM 26123.53880074  .00001236  00000-0  48374-3 0  9991
2 32425  96.7193 242.3420 0231004 230.9204 127.1228 14.17163977715439
Epoch: 2026-05-03T12:55Z
TLE epoch observation values (Epoch: 2026-05-03T12:55:52.383Z)
Latitude
0.00001°
Longitude
-173.06717°
Altitude
940.907 km
Speed
7.328 km/s
True Right ascension
16h 09m 22s
True Declination
0° 00' 00"
Sunlit
Object was in full shadow at epoch
Visualization orbit readout
Latitude
Unknown
Longitude
Unknown
Altitude
Unknown
Speed
Unknown
Apparent Right ascension
Unknown
Apparent Declination
Unknown
Sunlit
N/A
Visualization observer readout
Local Sidereal Time
01:37:37
Azimuth
Unknown
Elevation
Unknown
Doppler factor
Unknown
Orbital elements
Apogee altitude
998.593 km
Perigee altitude
665.478 km
Semi-major axis
7,210.172 km
Eccentricity
0.0231
Inclination
96.7193°
RAAN
242.342°
Arg. of periapsis
230.9204°
True anomaly
129.19683°
Mean anomaly
127.1228°
Eccentric anomaly
128.16345°
Mean motion
3.54507 °/min
Orbital period
101.55 mins
BSTAR
0.00048374
Loading maneuver chart data...
Computing Atmospheric mass density...

Documentation

Showing up to 5 results
|